Tracking 25612 objects as of 21-May-2022
HD Live streaming from Space Station
objects crossing your sky now

DELTA 2 DEB

Track DELTA 2 DEB now!
10-day predictions


NORAD ID: 35568
Int'l Code: 2007-047D
Perigee: 220.6 km
Apogee: 11,032.2 km
Inclination: 39.9 °
Period: 218.0 minutes
Semi major axis: 11997 km
RCS: 0.0138 m2 (small)
Launch date: October 17, 2007
Source: United States (US)
Launch site: AIR FORCE EASTERN TEST RANGE (AFETR)

Note: This is SATELLITE DEBRIS
aabbcc
Your satellite tracking list
Your tracking list is empty




NASA's NSSDC Master Catalog

Two Line Element Set (TLE):
1 35568U 07047D   22140.37583610  .00030025  00000-0  63398-3 0  9999
2 35568  39.8846 263.8412 4505823  29.8159 349.6498  6.60651109262843
Source of the keplerian elements: AFSPC